Wind_Speed
41 39 38 37 36 35 34 33 32 31 30 29 29 29 29 29 28 27 27 27 26 26 26 25 24 23 21 21 20 20 21 22 23 22 22 22 21 20 19 19 19 18 18 18 17 17 17 16 15 14 14 15 14 14 14 14 14 15 15 16 16 16 17 18 22 26 27 25 24 24 24 24 23 23 22 23 22 22 22 23 23 24 25 26 26
42 40 39 38 36 35 34 33 32 32 31 30 28 28 29 28 28 27 27 26 26 26 26 26 25 24 23 22 21 20 21 22 24 24 24 23 22 22 21 20 20 19 19 19 18 18 17 17 16 15 15 16 16 16 16 16 16 17 17 17 18 17 18 19 21 25 28 28 27 26 26 25 24 23 23 23 23 23 23 23 23 24 25 26 27
43 41 40 39 36 35 34 33 33 32 32 30 29 28 29 29 28 28 27 26 27 26 26 26 26 26 25 24 23 22 21 22 24 25 25 25 24 23 22 21 21 20 20 19 19 18 18 18 17 16 17 17 17 17 17 17 18 18 19 19 20 20 20 20 22 25 29 30 29 28 28 27 27 25 24 25 25 25 26 25 26 26 27 27 29
43 42 41 40 38 37 35 34 34 33 32 31 30 29 29 29 29 29 28 28 28 27 27 27 27 27 26 26 25 24 23 23 24 25 25 25 24 23 23 22 22 21 21 20 20 20 19 19 18 18 18 18 17 17 18 18 18 19 20 20 20 21 21 22 23 25 28 31 31 29 28 29 29 28 27 28 28 28 28 28 29 30 30 30 32
44 42 41 41 40 39 37 36 35 34 33 32 31 30 29 29 28 28 29 29 29 28 28 29 29 28 28 27 26 26 25 25 25 25 25 24 24 23 23 23 23 22 22 21 21 20 20 20 19 19 19 19 19 19 19 20 20 20 21 21 21 22 22 23 24 26 28 30 32 31 30 30 30 30 29 30 31 32 32 32 32 32 33 33 34
45 43 42 43 43 41 39 37 36 34 33 33 32 31 30 29 28 27 27 28 29 29 30 30 30 29 28 27 27 27 27 27 26 26 26 26 25 24 24 24 24 24 23 22 22 21 21 21 21 21 21 21 21 21 22 22 23 23 23 23 23 23 24 24 26 27 28 30 31 32 31 31 31 31 30 30 31 33 33 34 34 34 34 34 35
46 44 43 44 44 42 40 38 36 35 34 33 32 31 31 30 28 27 26 27 27 28 29 30 30 29 28 27 27 28 28 28 28 28 28 27 26 25 24 24 25 25 25 24 24 23 23 23 24 23 23 23 24 24 24 24 25 24 24 24 23 23 24 25 26 27 28 29 30 30 30 30 31 32 31 30 31 32 32 33 35 36 35 36 36
47 45 44 45 45 42 39 37 36 35 34 33 32 31 31 30 28 27 27 27 27 28 29 29 30 29 29 28 28 28 28 29 30 30 29 28 27 26 26 26 26 26 26 26 26 26 26 26 26 26 26 25 25 25 25 25 24 24 23 22 22 22 23 24 26 27 28 28 28 29 29 29 29 29 29 29 30 31 31 32 35 37 36 37 37
46 45 45 46 44 41 39 38 36 35 34 33 32 32 32 31 29 29 28 28 28 28 29 29 30 30 30 30 29 29 29 30 31 31 30 29 29 28 28 27 27 28 28 28 28 28 28 28 28 28 27 26 25 24 24 23 22 22 21 21 21 21 22 23 25 27 28 27 25 25 27 29 28 27 27 28 29 31 32 33 35 36 37 40 41
46 45 46 45 43 40 39 38 37 37 36 34 34 33 33 32 31 30 30 29 29 30 30 31 31 31 31 32 31 31 31 31 31 31 30 30 29 29 29 29 28 28 29 29 29 29 29 29 29 28 28 27 25 24 23 22 21 20 18 18 19 21 22 23 23 24 26 26 23 22 26 30 29 28 28 29 29 30 32 34 35 36 38 43 46
45 46 45 43 41 41 40 40 39 38 37 36 35 35 34 33 33 32 31 31 31 31 32 32 32 32 33 33 33 33 33 32 31 31 30 30 30 29 30 30 29 29 30 30 30 30 30 29 29 28 27 26 25 23 22 20 19 18 17 16 17 18 20 21 22 23 24 26 25 23 27 31 30 29 30 30 30 31 32 34 34 36 39 43 46
45 45 44 42 41 41 41 40 40 39 38 37 36 34 34 34 33 33 33 32 32 32 33 33 33 33 34 34 34 34 34 33 32 31 31 31 30 30 30 30 30 30 30 31 31 30 30 30 29 28 27 26 25 23 21 19 17 16 15 15 15 16 17 18 20 21 22 25 26 26 29 31 31 31 30 28 30 32 34 36 35 36 39 42 44
45 45 44 43 41 41 40 39 39 38 37 36 34 34 34 34 35 34 33 33 33 33 33 32 33 33 34 35 36 36 35 34 33 32 31 31 31 31 31 31 31 32 31 31 31 31 30 30 29 28 27 26 24 22 20 18 16 14 14 15 15 15 15 15 17 18 20 23 26 27 29 31 33 33 31 29 30 32 34 36 36 36 39 42 45
46 45 44 43 41 40 39 38 38 37 35 35 34 34 35 35 35 34 33 33 33 33 32 32 32 33 33 35 36 36 36 35 34 33 32 32 32 31 32 32 32 32 32 32 32 31 31 30 29 28 27 26 24 21 18 16 14 14 15 16 15 15 15 15 15 17 21 23 25 27 28 29 32 33 32 31 30 30 33 33 33 34 37 40 43
45 44 44 42 41 40 39 38 37 36 35 34 35 35 35 35 35 34 33 33 33 33 32 32 32 32 32 33 35 36 36 36 35 34 33 32 32 32 32 32 32 33 33 33 32 32 31 30 29 28 26 25 23 19 16 14 14 14 15 16 17 16 16 18 17 17 20 22 24 27 28 30 32 32 31 30 29 28 29 31 31 32 35 38 41
44 44 43 41 40 39 39 37 36 35 34 34 35 35 35 35 34 33 33 34 34 33 33 32 32 32 31 32 33 35 36 35 35 34 33 32 32 32 32 32 32 33 33 33 32 31 30 29 28 27 26 25 21 16 13 13 14 15 15 16 17 16 16 20 21 18 17 20 23 26 29 31 33 32 29 27 27 26 26 29 30 30 33 37 40
43 42 41 41 40 39 38 37 36 35 35 35 36 36 35 34 34 34 34 35 35 35 33 32 32 32 31 32 32 33 34 34 33 33 32 31 31 32 32 32 32 33 33 32 31 30 29 28 27 26 26 24 19 14 12 12 14 15 15 16 18 18 16 19 22 20 18 20 23 26 30 32 31 30 26 24 23 23 25 29 30 29 32 37 40
42 41 40 40 39 38 37 36 35 34 34 35 35 34 33 33 32 33 34 34 34 34 33 32 32 32 32 32 32 32 32 32 32 31 31 31 31 31 31 31 32 32 32 31 31 30 29 28 26 25 24 22 16 12 11 13 14 15 15 16 19 20 17 18 20 20 19 21 23 25 28 29 27 26 25 23 21 21 25 29 29 28 32 37 40
40 39 37 36 35 35 34 33 32 32 32 32 32 31 30 30 30 31 31 32 32 32 31 32 32 31 31 31 30 31 31 31 31 31 30 30 30 30 30 30 31 31 31 30 30 29 28 27 25 24 22 18 14 11 11 13 14 14 14 16 19 20 19 18 20 20 20 22 23 23 23 23 23 25 26 24 23 23 25 28 28 29 33 37 39
36 34 33 33 33 32 31 30 30 30 29 28 28 27 27 27 28 29 30 30 30 30 30 30 30 30 29 29 29 30 30 30 30 30 29 29 29 29 28 29 30 30 29 28 27 27 26 25 24 21 18 15 13 11 11 13 14 14 14 15 18 20 19 19 20 21 21 22 21 19 20 21 23 25 26 26 26 26 27 29 30 32 34 37 36
31 31 31 32 31 31 30 29 27 27 26 25 25 26 26 27 28 28 28 28 29 29 29 29 29 28 28 28 28 28 27 27 26 26 26 27 27 26 26 27 27 26 26 25 24 24 24 23 21 18 15 14 13 12 11 13 14 14 14 15 17 19 19 19 20 19 18 18 18 18 19 21 23 24 26 26 27 27 28 30 30 31 33 35 35
28 29 29 30 30 29 29 27 26 26 26 26 26 26 26 26 27 28 27 28 28 28 28 28 28 28 27 27 27 27 25 24 23 22 23 23 23 23 24 24 23 22 23 23 22 22 22 20 18 16 14 14 13 12 12 13 14 14 14 14 17 21 19 14 14 15 15 16 18 19 19 21 22 24 25 25 26 27 28 29 30 31 33 35 37
27 27 28 28 28 28 27 25 24 25 25 25 25 25 25 26 27 27 27 27 28 27 27 28 28 28 28 28 27 26 24 22 21 21 21 21 21 21 22 21 20 20 22 23 22 20 19 18 16 15 14 14 14 13 14 14 14 14 14 14 16 19 13 5 5 7 12 16 18 19 20 21 23 24 25 26 27 28 30 31 33 35 37 39 40
26 26 26 27 27 26 24 23 23 24 24 23 23 23 25 26 26 27 27 27 28 29 29 29 29 29 28 28 27 25 22 20 20 20 20 20 20 21 21 20 19 20 22 22 20 18 18 17 16 15 14 14 15 15 15 15 14 14 14 14 14 11 5 1 1 5 10 14 17 19 20 21 22 23 25 26 28 29 31 33 35 36 38 40 40
26 25 25 25 24 23 23 22 22 22 22 22 22 23 24 25 26 27 27 28 29 30 29 28 29 29 27 27 26 23 21 20 20 20 19 19 20 20 20 20 19 20 20 20 19 19 18 17 17 16 16 16 16 17 16 16 15 15 15 14 11 5 2 4 5 7 10 13 16 17 18 19 20 22 24 26 28 29 30 32 33 33 33 34 35
24 24 23 23 22 22 22 22 22 22 22 22 22 22 23 25 25 26 27 28 29 29 28 28 27 26 26 26 25 22 21 21 21 20 20 20 20 20 20 19 18 18 19 20 20 19 19 18 18 18 18 18 18 18 17 16 16 16 14 11 7 4 3 5 6 8 10 12 14 15 16 18 19 21 23 25 26 26 26 27 27 27 27 29 31
24 23 22 22 22 22 22 22 23 23 24 24 24 23 24 25 26 26 27 28 28 27 27 26 26 24 24 24 23 21 22 22 21 20 20 19 19 19 19 19 18 19 21 21 20 20 20 20 20 20 19 20 20 19 18 17 16 13 9 6 5 5 6 6 7 8 9 10 11 13 15 17 18 19 20 21 21 21 21 22 24 25 27 29 32
24 24 23 23 23 23 23 24 24 24 25 26 26 26 26 27 28 27 27 28 27 26 25 25 25 25 23 22 21 21 22 23 22 20 19 18 18 18 19 19 20 21 21 21 20 21 22 21 21 21 21 21 21 19 17 15 12 9 6 5 6 7 7 7 7 7 8 10 12 13 14 15 16 17 17 17 17 18 20 23 25 28 29 30 32
24 24 24 24 24 24 24 24 25 25 26 26 27 28 28 28 29 28 27 27 27 26 25 25 24 23 22 22 21 21 22 22 19 16 15 15 16 17 19 19 20 20 20 19 20 21 21 21 21 21 21 22 21 18 15 12 9 7 6 7 7 7 7 7 7 8 10 11 13 13 13 13 13 14 15 16 17 19 22 26 27 29 30 31 32
23 23 24 24 25 25 25 26 26 27 27 27 29 30 29 29 29 28 27 26 25 25 25 24 22 21 21 21 21 20 20 19 16 15 15 16 17 18 19 20 19 19 19 19 19 20 20 20 20 20 21 20 18 15 13 11 9 8 8 8 7 6 6 7 8 9 11 12 12 11 11 11 12 13 15 18 19 21 24 27 28 29 31 33 34
23 23 23 24 24 24 25 26 27 28 28 27 28 28 28 28 28 28 28 27 25 25 24 23 21 20 20 21 20 19 19 18 17 17 17 18 19 20 20 20 20 20 19 19 19 20 20 20 20 19 18 16 14 13 12 11 10 9 8 8 7 6 7 8 9 10 10 10 9 9 9 10 13 16 18 20 23 25 27 29 30 31 33 34 36
22 22 22 22 22 22 22 23 24 25 26 26 25 25 25 26 26 27 27 26 24 24 24 23 21 20 20 20 20 18 18 19 19 19 19 20 20 21 21 21 20 19 19 18 19 20 20 20 18 16 15 14 13 12 11 10 11 10 9 8 7 6 7 8 9 9 9 8 7 7 9 12 15 18 21 23 27 29 31 31 32 34 34 35 37
20 20 21 21 21 21 20 20 20 21 22 23 23 23 23 23 23 23 23 22 22 21 21 21 21 21 21 21 21 20 19 19 19 20 20 20 20 20 19 20 19 19 18 18 19 20 20 19 17 16 15 13 11 10 10 11 11 10 8 7 6 6 7 7 7 7 6 5 6 8 11 14 16 19 22 25 28 31 32 32 32 34 35 36 37
19 19 19 19 20 20 19 18 18 18 18 19 19 19 19 19 18 18 18 19 19 20 20 20 20 20 20 20 20 20 19 19 19 19 19 19 20 19 18 17 17 17 18 19 20 20 19 19 17 15 13 11 10 9 11 12 11 9 8 7 6 5 5 5 4 4 4 4 6 9 11 14 16 19 22 25 28 30 33 33 33 34 36 36 37
16 17 17 17 18 18 18 18 17 17 17 17 17 17 18 17 16 15 15 16 17 19 21 21 20 19 19 19 19 19 20 20 20 19 18 19 19 18 17 15 15 18 21 20 17 16 15 14 13 12 11 10 10 11 12 11 10 8 7 6 5 4 3 2 1 1 2 4 6 9 11 13 16 19 21 24 27 29 32 33 33 34 35 36 37
12 12 13 15 16 16 16 17 16 16 16 16 16 17 17 17 17 16 15 15 16 18 20 21 21 20 19 19 20 21 21 20 20 18 18 17 16 15 15 15 16 19 20 18 15 13 13 12 11 11 10 10 11 12 11 10 9 8 7 5 5 4 3 3 2 1 2 4 5 8 10 13 15 17 19 22 24 27 29 30 32 33 34 35 37
11 10 11 12 13 13 13 14 14 14 14 14 15 16 16 17 18 18 17 18 19 19 19 20 21 20 18 16 16 17 17 17 17 17 17 17 15 13 14 15 15 15 15 15 14 13 13 13 12 11 11 11 11 11 10 10 9 8 7 6 6 6 6 4 2 1 2 3 5 7 9 12 14 16 17 19 21 23 26 28 30 31 32 34 36
9 9 10 11 12 12 12 12 12 12 12 12 12 13 14 16 18 19 19 20 20 19 19 20 20 19 18 16 14 15 16 16 17 17 17 16 15 13 13 14 15 14 14 13 13 12 12 12 12 11 11 12 12 12 12 11 10 9 8 7 7 7 6 4 3 2 1 2 4 6 8 10 12 14 15 17 19 21 23 25 27 28 30 31 33
8 8 8 10 11 11 10 10 10 11 11 11 11 11 12 14 17 20 20 20 20 20 21 21 20 18 18 18 18 16 16 16 16 16 16 15 14 14 14 15 16 15 14 13 13 12 12 12 11 11 12 12 13 13 13 12 11 10 9 8 8 8 6 5 4 2 2 2 3 5 7 9 11 12 14 16 17 18 19 21 23 25 26 27 29
8 7 7 8 8 8 7 7 8 9 10 10 10 11 12 13 16 20 23 24 24 24 23 22 21 21 22 23 23 20 19 19 18 16 15 15 16 16 16 15 15 14 14 13 13 12 12 12 12 12 12 13 14 15 15 13 12 11 10 9 9 9 7 6 5 4 3 3 4 6 7 9 10 11 12 14 15 16 17 17 19 21 23 24 26
5 5 5 6 6 6 5 5 5 6 7 8 10 13 15 15 17 20 23 25 27 29 28 25 24 25 25 24 22 19 18 18 17 15 15 16 16 15 15 14 13 12 12 11 11 10 9 9 10 10 11 12 13 15 15 14 12 11 11 10 9 9 8 8 8 7 6 5 6 7 8 9 10 11 12 13 14 15 16 16 16 18 19 21 23
4 3 3 2 4 4 4 4 4 4 4 6 11 16 19 21 21 22 24 25 27 30 31 29 27 26 25 23 20 17 16 17 17 17 16 16 15 13 12 11 10 9 8 7 7 6 5 4 4 5 6 7 9 11 13 13 12 11 11 10 9 9 9 9 10 9 8 8 8 9 10 11 12 13 13 14 15 15 15 15 14 15 16 18 20
5 5 4 2 2 4 5 6 6 6 6 7 12 16 20 22 23 24 25 27 29 30 30 30 29 28 27 24 20 17 17 19 19 18 16 14 12 10 9 9 8 8 7 7 5 4 3 3 3 3 3 3 4 6 8 9 10 10 10 10 10 10 10 10 11 11 11 10 11 11 12 13 14 14 15 15 15 15 15 14 13 14 14 15 16
7 6 6 6 5 5 7 8 10 10 10 11 14 17 20 22 24 27 29 30 31 32 32 32 32 30 28 25 20 18 19 19 18 16 14 12 10 8 8 8 8 8 7 6 5 5 4 4 3 3 4 4 4 4 6 7 8 9 10 10 10 10 10 10 11 11 11 12 12 12 13 13 14 14 15 15 15 16 15 14 14 14 15 14 14
9 9 8 8 8 7 8 10 11 13 13 14 17 20 23 25 28 31 33 33 33 33 33 33 32 30 28 26 23 22 21 20 17 14 12 10 8 8 8 9 9 8 7 6 5 5 5 4 3 3 3 3 3 4 5 5 6 8 8 8 9 10 10 11 11 11 12 12 12 13 13 13 13 13 15 15 16 16 16 15 15 16 15 14 14
11 11 10 10 10 10 10 11 12 13 15 17 20 23 25 27 30 31 33 33 34 33 33 32 31 29 27 26 24 22 20 18 16 14 12 10 10 9 10 11 10 9 7 6 5 5 4 3 3 2 2 1 1 2 2 3 5 6 7 7 8 9 10 11 11 11 12 12 12 12 13 13 13 13 14 15 15 15 15 15 16 16 15 15 14
13 12 11 12 12 13 13 14 15 16 17 20 23 26 28 29 30 31 31 32 32 33 32 32 30 28 26 24 23 21 19 18 18 17 15 13 12 12 12 12 11 8 6 5 5 4 3 3 2 2 1 1 1 2 3 4 5 7 8 8 9 9 10 11 11 12 12 12 13 13 14 14 15 15 15 15 15 15 15 15 16 15 16 15 15
14 14 14 14 15 16 17 18 18 19 20 22 25 28 30 30 31 32 32 32 32 31 30 29 29 28 27 25 23 21 20 21 20 19 17 15 13 12 12 11 10 8 7 6 5 3 3 2 1 1 1 2 3 4 4 5 6 7 8 9 9 10 11 11 12 12 13 13 14 14 14 14 14 15 14 14 14 14 14 14 14 15 15 15 15
13 13 14 15 16 18 19 21 22 23 24 25 28 30 31 32 33 33 33 32 31 29 27 26 25 25 24 24 22 21 21 21 20 19 18 17 15 13 11 10 10 8 7 6 5 4 3 2 2 2 2 3 4 4 5 6 7 7 8 9 9 10 11 11 12 12 13 13 14 14 14 13 13 14 14 14 14 14 14 13 13 13 14 14 14
12 12 13 15 16 17 18 20 21 22 23 23 24 25 26 27 27 28 28 28 27 26 25 25 25 24 24 23 22 21 21 21 20 19 17 16 14 12 11 10 9 8 7 6 5 4 3 3 2 2 2 3 4 5 6 7 8 9 9 9 10 10 10 11 11 12 13 13 13 13 13 13 13 13 14 14 14 14 14 14 13 13 13 13 14
17 18 20 21 22 22 21 21 21 22 22 22 21 21 20 20 19 19 19 18 18 17 16 16 17 19 20 21 21 20 20 20 19 17 16 14 13 12 11 10 9 8 7 6 5 4 3 2 1 0 1 2 3 5 5 6 7 8 9 9 10 10 11 11 12 13 13 14 14 14 15 15 15 15 15 15 15 14 14 13 13 13 13 13 13
Wind_Direction
224 224 223 223 224 224 224 225 225 226 228 230 231 232 233 233 233 234 235 235 235 236 237 238 239 239 240 240 239 239 239 238 238 239 239 241 242 245 248 251 254 257 259 261 263 264 265 264 264 265 266 268 270 272 274 276 277 277 279 281 284 285 288 287 289 296 302 304 305 307 307 308 308 308 309 309 308 306 304 301 300 298 296 294 291
223 222 222 223 223 223 223 224 225 227 229 230 231 231 232 232 232 233 233 234 235 236 236 238 239 240 241 241 239 239 238 237 238 239 239 241 243 245 248 251 254 257 258 260 261 263 265 265 265 266 266 267 269 271 274 276 277 279 281 283 285 287 289 290 291 295 299 303 305 306 306 307 307 308 309 308 307 306 304 301 299 296 294 293 291
222 221 221 222 222 222 224 224 225 226 228 230 230 231 232 232 232 232 233 234 234 235 235 237 238 239 241 241 239 238 238 237 238 239 240 241 243 245 247 250 253 256 257 258 259 261 263 265 266 268 269 269 270 272 274 276 277 279 282 283 286 288 290 291 292 293 297 300 302 303 305 305 305 307 307 306 305 304 303 301 299 296 295 294 293
222 221 221 221 221 223 224 224 225 226 227 229 229 230 232 233 233 232 232 234 235 234 235 236 238 239 241 240 238 236 235 235 237 238 239 240 242 243 245 248 251 254 255 256 257 258 261 263 266 269 271 271 271 273 275 276 278 280 283 285 288 290 292 293 293 293 294 296 298 300 301 302 303 304 306 306 305 303 302 301 300 299 298 297 295
223 222 221 222 223 223 224 224 225 225 226 227 228 230 232 233 233 232 232 234 235 235 235 237 238 240 240 239 236 233 233 234 235 236 237 238 240 242 244 247 250 253 254 255 256 257 259 262 265 268 271 272 272 274 276 279 281 283 285 289 292 294 295 295 293 293 292 293 294 296 297 299 300 302 303 305 305 304 303 302 301 300 298 296 295
222 222 222 223 223 224 224 224 225 225 225 226 227 229 231 232 232 231 231 233 234 235 236 238 239 240 239 238 235 233 232 233 234 235 237 239 241 244 246 247 250 253 254 255 256 258 260 263 266 268 270 272 274 276 279 282 285 287 289 291 294 295 295 294 292 290 290 291 292 294 297 300 302 301 302 304 304 304 304 304 302 299 297 296 294
221 221 221 222 223 223 223 223 224 225 226 226 227 229 231 232 233 231 231 232 233 235 236 238 239 240 239 238 235 234 233 234 234 235 238 241 244 245 246 248 250 252 254 255 257 260 262 264 267 268 269 271 274 278 281 285 288 290 291 292 294 295 294 293 291 291 292 294 295 297 299 301 302 302 303 304 303 302 304 304 301 298 298 298 296
221 221 221 222 223 222 221 223 224 225 227 227 228 230 231 232 233 232 232 232 233 234 236 238 239 239 239 238 237 236 235 236 236 237 238 241 243 245 246 248 249 251 254 256 258 261 264 266 267 269 270 272 274 279 282 286 289 290 292 294 294 294 294 293 293 295 297 299 300 302 303 302 300 300 301 302 302 303 304 302 299 299 300 297 293
221 220 220 221 222 221 221 222 224 226 228 228 228 230 231 231 232 232 232 232 232 233 235 237 239 240 240 239 239 239 238 237 237 237 238 240 242 245 247 248 250 252 254 257 259 262 264 266 268 270 272 274 276 279 280 283 286 288 291 295 295 294 294 295 297 299 302 302 302 304 306 304 300 300 302 302 303 305 303 299 299 299 298 293 289
220 220 221 222 222 221 222 223 224 225 227 228 228 229 230 231 231 231 231 231 232 233 234 235 237 239 240 240 240 240 239 238 238 239 240 242 244 246 248 250 252 254 256 258 260 262 264 265 267 269 272 274 276 278 279 281 283 286 289 292 295 295 295 298 300 302 303 304 303 303 305 304 303 303 303 301 302 302 300 300 302 302 299 296 295
220 221 222 222 222 222 222 223 224 226 227 228 229 229 230 231 231 231 231 231 232 232 233 234 235 237 239 240 241 241 241 239 239 240 241 243 245 248 250 252 254 255 257 259 260 262 264 266 268 270 272 274 275 277 278 280 283 284 285 286 290 292 295 298 301 302 303 304 305 304 302 301 300 299 299 301 302 302 301 303 307 307 303 300 299
220 221 222 223 222 222 223 224 225 226 228 229 230 231 232 233 233 233 233 233 233 234 234 235 234 235 237 239 240 242 242 241 241 241 242 243 246 249 252 254 256 257 258 259 261 263 265 267 270 272 274 276 277 279 280 280 281 281 281 281 282 286 290 293 296 298 300 300 298 295 293 293 294 294 296 299 301 303 305 306 309 307 303 300 299
219 220 222 222 222 222 223 225 226 227 229 229 231 232 233 234 235 235 235 235 236 236 237 237 237 236 237 238 239 241 243 243 242 242 242 244 245 248 252 255 257 259 260 261 263 264 266 268 271 272 275 277 279 280 282 283 284 282 280 278 279 283 285 285 288 289 287 286 285 286 290 292 293 293 294 298 302 304 304 305 306 305 301 301 302
218 219 221 222 222 222 223 225 226 228 229 229 231 232 233 234 235 236 237 238 239 239 240 240 240 239 239 239 240 241 242 243 243 243 243 244 246 248 251 254 256 258 260 261 263 264 266 268 270 271 274 276 278 281 283 285 288 287 284 282 283 285 282 278 275 272 273 278 284 291 297 295 291 292 296 302 306 305 304 305 306 303 300 300 301
217 219 220 222 222 222 223 224 226 227 228 230 231 232 234 235 236 236 237 239 240 241 242 242 242 241 241 241 242 242 241 241 242 242 243 244 246 248 250 253 255 257 259 260 262 264 266 268 270 271 273 275 278 282 284 286 288 290 289 288 290 291 285 279 273 270 276 283 288 293 294 289 288 294 303 308 308 307 308 309 305 302 301 302 301
217 219 220 222 223 223 223 224 225 226 227 229 231 232 234 235 235 236 238 239 241 242 242 243 244 244 244 244 245 244 242 241 242 242 242 244 246 248 250 251 253 255 257 259 261 264 266 268 270 271 272 274 277 279 281 282 286 289 289 287 288 288 285 284 285 283 282 282 281 281 281 282 290 299 306 309 309 310 309 304 301 301 300 299 297
217 219 221 222 222 223 224 224 225 226 227 229 230 232 234 235 236 237 239 240 242 243 243 244 245 246 245 245 247 246 244 243 243 242 243 244 246 248 250 251 254 255 257 259 261 263 265 266 268 269 270 273 276 277 278 279 284 287 287 286 285 283 281 285 288 286 280 276 275 275 278 285 294 298 302 306 309 309 304 299 301 302 296 292 292
218 220 221 222 223 224 225 226 226 228 229 230 232 233 235 237 238 240 241 242 244 245 245 246 247 248 248 248 249 248 246 245 244 243 243 243 245 248 249 252 254 255 257 259 260 261 262 262 263 266 268 270 273 272 274 279 282 285 286 282 278 276 277 279 281 280 276 272 273 278 285 293 297 296 298 303 306 304 299 299 302 300 294 293 294
219 221 222 223 224 225 226 227 228 229 231 232 234 235 237 238 239 241 242 243 245 246 247 248 249 249 250 250 250 250 248 247 246 244 243 243 245 247 249 251 253 254 256 257 258 259 259 259 259 261 263 265 265 262 268 276 278 279 281 277 270 270 272 272 273 275 275 275 281 289 294 298 299 298 300 304 307 305 302 303 304 300 296 296 296
219 221 222 223 224 225 226 227 228 229 230 232 233 234 235 236 238 240 241 242 244 245 246 247 248 248 248 249 249 249 248 247 246 244 242 243 244 246 248 249 251 253 255 256 257 257 257 256 257 257 257 256 254 253 261 269 272 273 272 268 265 266 270 273 274 276 280 286 293 297 297 297 300 302 304 308 310 308 305 304 303 300 299 299 297
218 220 221 222 224 225 226 227 227 228 229 230 232 233 234 235 237 239 240 241 242 243 244 246 247 248 247 248 248 247 247 246 245 244 242 242 243 244 245 247 249 251 254 255 255 255 255 254 254 252 250 248 247 250 255 262 269 270 266 266 267 265 268 273 275 277 285 292 295 296 297 301 303 305 307 308 308 306 305 303 301 300 301 302 300
215 218 220 222 224 225 226 227 227 228 230 231 233 234 235 237 239 240 241 242 243 243 244 246 248 248 249 249 248 247 246 245 243 242 241 240 241 241 243 244 246 249 253 253 252 251 252 253 252 248 246 246 249 252 255 260 267 268 269 275 270 261 259 259 260 267 281 290 293 298 303 305 305 306 307 307 306 306 306 304 302 302 301 301 301
213 216 219 221 223 225 227 228 228 229 232 233 235 237 238 239 240 241 242 243 244 245 246 247 249 250 250 251 250 249 246 244 242 241 240 239 239 239 241 242 241 244 248 250 250 251 252 252 250 245 244 249 255 257 259 263 267 271 276 278 266 259 259 240 221 266 294 300 303 307 307 306 307 307 308 309 308 308 308 307 305 304 303 303 305
209 214 217 220 223 225 226 228 230 231 233 234 235 237 238 240 242 243 244 244 245 246 248 248 249 249 250 251 252 250 247 245 243 241 239 239 238 238 239 239 237 240 246 249 251 252 251 249 247 245 246 251 256 259 263 267 270 274 276 268 257 257 279 351 336 313 314 308 305 305 304 304 306 308 309 309 308 308 308 307 306 307 307 308 308
205 209 212 216 219 220 222 225 227 229 231 233 235 236 238 240 241 242 244 245 244 246 247 248 249 250 250 252 253 252 249 248 246 242 239 239 239 239 239 239 237 239 244 248 248 248 247 245 245 246 248 252 256 261 266 270 274 277 276 271 267 270 315 321 310 309 304 298 297 297 299 302 305 307 308 308 307 308 309 309 310 311 311 309 308
197 201 207 211 212 215 219 222 225 227 230 233 235 236 238 240 242 243 244 245 244 245 247 248 248 248 249 251 253 253 252 251 249 246 242 241 241 241 241 240 238 237 239 242 243 242 241 241 244 247 250 254 259 264 267 271 276 277 276 277 282 289 289 291 291 288 289 291 293 296 300 303 304 306 307 308 310 313 314 315 316 317 318 317 318
193 194 199 205 209 212 216 219 223 227 230 231 233 234 236 239 241 241 243 243 242 243 245 246 245 245 248 251 251 252 253 252 250 247 244 242 243 241 239 236 234 232 234 236 238 238 238 240 244 248 253 257 260 263 266 271 272 267 260 259 261 260 262 270 275 277 284 291 294 298 303 305 308 312 314 317 321 324 326 329 331 335 338 338 337
194 194 197 203 208 212 215 217 220 224 227 230 231 231 232 236 238 238 240 242 241 242 244 246 246 247 250 252 251 249 250 251 249 247 245 244 242 240 235 230 228 229 230 232 235 238 240 242 247 251 255 257 259 261 263 263 258 246 235 237 246 253 261 272 283 290 297 304 306 309 313 317 322 327 328 332 339 343 347 351 352 353 354 352 348
195 197 201 205 209 212 213 214 216 219 222 224 227 227 228 231 234 236 239 240 241 244 247 249 250 252 254 253 251 249 251 251 247 243 241 238 235 234 231 228 227 229 230 232 236 240 242 245 248 252 254 256 258 257 251 243 235 230 230 236 247 260 274 287 299 306 312 315 317 321 328 335 340 344 347 354 0 3 4 6 5 4 3 1 359
195 199 202 207 210 212 212 212 213 214 217 219 223 226 227 228 231 235 238 238 239 242 245 246 247 248 250 250 247 246 248 246 236 227 226 224 222 224 226 226 227 228 228 230 236 241 244 246 248 251 255 255 251 241 230 222 220 221 226 238 254 269 284 296 305 313 319 323 327 333 342 349 356 2 7 11 13 13 14 14 13 11 10 8 7
195 198 201 205 209 210 213 214 215 216 217 219 223 228 229 230 231 234 237 238 238 238 240 240 240 239 241 244 242 239 239 236 227 220 220 219 218 220 223 225 226 226 225 228 232 236 239 242 246 248 247 240 228 218 213 213 216 221 230 245 261 273 285 298 308 318 327 333 337 345 357 8 15 19 18 18 19 20 20 21 19 17 16 14 11
197 199 201 203 204 205 209 212 215 218 219 220 223 226 228 230 231 232 234 235 234 235 235 234 232 231 232 235 234 231 230 228 225 222 221 221 222 223 224 225 225 224 223 226 230 233 234 235 236 234 226 216 209 206 206 210 219 227 238 248 260 276 291 304 317 328 338 343 346 359 15 23 26 25 22 21 22 22 22 22 22 20 19 17 14
198 201 203 204 204 204 205 206 210 213 215 218 220 220 222 225 226 228 230 230 230 233 234 232 229 226 224 226 226 225 224 225 226 225 224 225 227 227 227 227 225 221 221 225 228 227 223 219 215 211 207 204 200 200 208 220 227 233 240 248 263 282 296 309 326 339 344 344 353 12 24 26 25 24 23 22 22 22 22 22 21 20 18 17 15
196 198 201 203 204 205 205 204 204 205 207 210 211 211 212 215 216 220 226 228 229 232 233 232 229 224 221 221 222 222 224 226 227 227 228 228 228 227 227 228 223 217 216 219 218 213 204 199 198 198 198 198 197 204 217 225 229 233 241 252 269 285 297 314 335 344 342 348 7 21 26 25 23 22 23 22 22 21 21 20 18 17 16 15 14
184 189 193 197 200 201 201 201 199 200 200 200 200 202 204 206 207 212 220 225 229 230 229 228 226 222 220 221 223 226 231 233 231 231 234 230 220 214 215 215 205 198 197 196 195 192 187 184 184 187 189 193 199 209 217 221 225 232 241 251 264 270 275 290 315 332 343 0 18 24 24 24 23 21 21 22 21 20 20 19 17 15 13 12 12
157 172 183 190 193 194 194 193 193 194 196 197 199 202 203 205 207 209 215 223 229 230 226 222 220 218 217 220 223 224 225 226 224 221 222 216 201 191 196 195 184 181 181 177 174 174 173 173 176 181 187 196 205 211 215 219 226 234 237 242 243 229 212 212 226 292 348 5 19 23 22 21 20 19 19 20 21 20 18 17 16 14 11 10 10
143 153 165 175 181 183 186 188 191 195 197 199 202 205 207 210 211 211 215 222 228 228 224 218 214 211 208 208 210 205 197 194 194 192 187 182 174 172 178 175 166 164 167 166 167 171 174 177 184 189 195 204 209 213 217 221 225 230 231 228 220 208 201 207 222 266 334 4 15 18 18 15 12 13 15 15 17 18 17 15 15 13 10 9 8
130 144 153 162 169 174 180 187 194 201 205 204 205 209 214 216 216 215 218 222 224 222 216 207 202 202 200 191 185 181 173 168 171 170 163 158 160 164 163 155 151 156 161 161 164 170 176 183 190 195 201 207 210 214 218 220 220 221 220 216 209 205 206 212 221 247 303 357 7 4 5 6 4 5 7 9 11 13 14 14 13 11 9 8 7
96 118 139 153 166 177 186 190 195 203 210 213 214 217 220 221 220 218 215 212 209 205 197 187 180 183 183 174 167 169 168 164 163 161 152 147 149 151 150 148 149 153 157 159 162 169 179 186 191 197 203 208 211 214 216 215 214 214 213 211 209 206 208 214 218 228 258 309 336 342 348 353 355 356 358 360 3 6 9 11 11 9 8 7 6
73 87 107 125 143 162 177 188 195 203 209 213 216 218 219 225 224 213 200 190 185 182 180 176 171 169 169 166 163 165 166 162 158 153 145 141 141 141 142 146 150 152 156 162 166 173 181 187 192 198 203 205 207 209 209 210 211 211 209 210 210 210 214 222 230 235 250 276 305 322 329 334 340 344 347 349 353 358 2 5 7 7 7 6 5
42 58 79 98 111 121 135 155 178 192 198 205 211 210 208 210 214 209 198 189 179 170 167 168 168 166 164 162 162 164 164 159 154 151 145 143 145 147 151 155 159 161 166 170 171 175 181 185 188 193 197 200 203 206 207 208 210 211 211 211 212 216 224 232 240 247 256 272 289 303 311 317 324 330 332 335 339 345 350 353 358 2 5 6 5
342 359 24 81 113 123 129 138 147 157 175 198 208 206 201 198 197 198 196 189 178 166 161 161 163 162 160 158 160 165 164 158 155 154 151 148 150 153 154 156 157 159 162 165 164 165 164 164 169 175 182 192 201 205 207 211 213 216 220 223 224 229 235 240 246 252 258 268 279 288 295 303 310 316 319 321 325 329 334 338 344 351 357 2 5
308 306 303 289 203 173 163 158 157 158 170 194 204 204 201 195 188 184 181 178 173 168 164 162 161 160 159 160 163 166 163 156 153 152 150 148 147 146 146 147 148 148 148 147 145 141 133 125 127 136 151 172 191 200 209 216 222 227 233 237 240 244 247 249 252 256 260 266 274 282 289 296 302 306 310 313 315 317 321 326 331 337 345 352 357
297 292 286 279 257 214 180 171 170 171 177 189 194 193 191 186 177 171 168 168 168 168 166 163 160 159 158 160 162 163 160 156 154 151 146 142 139 137 134 132 132 131 131 130 129 130 135 137 136 142 152 162 176 194 209 220 227 234 239 244 249 252 253 255 257 260 264 269 275 282 289 294 299 303 306 309 310 312 316 321 323 326 331 337 339
281 277 270 265 255 232 198 181 177 175 177 182 182 179 177 174 170 165 163 162 164 166 165 162 161 161 161 162 164 164 161 158 154 148 142 138 136 133 128 122 117 113 112 117 124 130 138 143 140 144 154 163 175 197 216 227 233 237 242 249 255 257 257 258 262 265 269 274 280 285 290 294 297 301 304 306 308 310 312 316 319 322 325 327 325
263 260 252 244 238 225 203 188 182 178 175 175 174 171 169 167 166 164 161 159 160 162 163 163 164 164 164 163 162 159 156 153 149 144 140 136 131 126 122 120 117 113 111 119 126 131 139 144 142 141 150 165 179 209 243 257 256 254 255 259 262 263 262 262 265 268 273 279 285 289 292 293 295 298 301 303 305 308 310 313 317 319 319 320 319
253 250 240 229 219 209 196 186 181 177 173 171 170 169 168 168 167 165 164 162 160 159 160 161 164 165 164 162 159 154 150 147 144 140 136 130 124 120 119 118 116 114 116 123 131 136 142 147 154 164 186 248 280 285 289 291 287 283 279 275 272 271 269 269 270 273 277 281 285 288 291 292 292 294 297 299 300 304 309 313 316 317 316 315 316
251 248 239 225 212 201 190 182 178 175 172 171 170 169 168 168 167 165 164 163 162 159 157 156 159 161 162 161 157 153 149 146 142 138 134 129 124 123 124 124 122 122 124 128 133 140 143 142 154 196 239 263 267 273 283 289 289 288 287 285 283 281 280 279 279 280 282 286 287 288 289 292 294 296 298 300 304 307 310 311 312 313 313 312 311
240 237 229 218 206 196 187 180 177 175 174 175 176 174 172 171 169 168 166 164 161 157 154 150 149 150 153 152 149 146 144 143 141 140 139 136 130 127 129 133 134 135 137 141 146 153 164 178 201 231 253 261 264 271 278 282 283 286 289 289 287 286 287 287 289 290 293 296 297 295 292 292 294 297 299 303 307 309 309 307 307 308 309 310 310
204 197 189 184 177 172 168 166 165 163 162 165 168 167 165 164 163 161 160 158 155 151 148 144 139 136 137 139 140 141 142 142 141 140 139 136 130 127 127 127 127 129 134 139 143 146 157 175 194 221 253 274 282 286 284 283 286 290 292 291 289 289 289 290 291 294 297 299 300 300 298 296 295 298 301 304 306 307 307 308 309 309 310 310 310
160 158 156 152 148 144 143 141 139 136 134 135 135 134 133 132 131 130 131 133 132 129 126 124 122 121 121 122 123 127 130 132 132 134 134 132 128 124 121 118 116 115 114 112 110 109 109 118 131 163 307 312 310 307 304 301 298 296 295 294 294 293 293 291 290 290 291 291 292 293 295 297 299 301 304 306 307 309 310 313 316 316 315 313 311
Height
1518 1522 1525 1528 1531 1534 1537 1540 1543 1545 1547 1550 1552 1554 1557 1559 1561 1564 1566 1568 1570 1572 1574 1575 1577 1578 1579 1581 1582 1583 1584 1585 1587 1587 1589 1590 1591 1592 1592 1593 1594 1594 1595 1596 1597 1598 1599 1600 1600 1601 1602 1602 1603 1603 1604 1604 1604 1604 1604 1604 1605 1605 1605 1606 1604 1601 1600 1602 1602 1602 1601 1601 1600 1599 1599 1598 1598 1597 1596 1595 1594 1593 1592 1590 1589
1514 1518 1522 1525 1528 1531 1534 1537 1540 1542 1545 1547 1549 1551 1554 1556 1558 1561 1563 1565 1567 1569 1571 1573 1574 1576 1577 1578 1579 1581 1582 1583 1584 1585 1586 1587 1588 1590 1590 1591 1592 1592 1593 1594 1595 1596 1597 1597 1598 1599 1600 1600 1601 1602 1602 1603 1603 1603 1603 1603 1604 1604 1605 1604 1603 1601 1598 1598 1599 1598 1597 1597 1596 1596 1595 1595 1594 1593 1592 1591 1590 1589 1588 1586 1585
1510 1514 1518 1521 1525 1528 1531 1534 1537 1539 1542 1544 1546 1548 1551 1553 1555 1558 1560 1562 1564 1566 1568 1570 1572 1573 1574 1576 1577 1578 1579 1581 1582 1583 1584 1585 1586 1587 1588 1589 1590 1590 1591 1592 1593 1594 1594 1595 1596 1597 1598 1598 1599 1600 1601 1601 1602 1601 1602 1602 1603 1603 1603 1603 1602 1600 1597 1595 1594 1594 1594 1593 1592 1592 1592 1591 1590 1589 1588 1587 1586 1585 1583 1582 1580
1506 1510 1514 1518 1521 1525 1528 1530 1533 1536 1538 1541 1543 1546 1548 1550 1552 1555 1557 1559 1561 1563 1565 1567 1568 1570 1571 1573 1574 1576 1577 1578 1579 1580 1582 1583 1584 1585 1586 1587 1587 1588 1589 1590 1590 1591 1592 1593 1594 1595 1596 1596 1597 1598 1599 1599 1600 1600 1600 1601 1601 1602 1602 1601 1599 1597 1595 1592 1590 1591 1590 1590 1589 1589 1589 1587 1587 1586 1585 1584 1582 1581 1579 1578 1576
1502 1506 1510 1514 1518 1521 1524 1527 1530 1532 1535 1538 1540 1543 1545 1547 1549 1552 1554 1556 1558 1560 1562 1563 1565 1567 1568 1570 1571 1573 1574 1576 1577 1578 1579 1580 1581 1583 1583 1584 1585 1586 1586 1587 1588 1589 1590 1590 1592 1593 1594 1594 1595 1596 1597 1598 1598 1599 1599 1599 1599 1600 1599 1598 1596 1594 1592 1589 1587 1587 1588 1588 1587 1587 1587 1585 1583 1582 1581 1580 1579 1577 1575 1573 1571
1498 1502 1507 1510 1513 1516 1519 1523 1526 1529 1532 1534 1537 1540 1542 1544 1546 1549 1551 1553 1555 1557 1558 1560 1561 1563 1565 1567 1568 1570 1571 1573 1574 1575 1577 1578 1579 1580 1581 1582 1583 1583 1584 1585 1586 1586 1587 1588 1589 1590 1591 1592 1593 1594 1595 1596 1596 1596 1597 1597 1597 1597 1596 1594 1592 1590 1588 1587 1586 1585 1586 1586 1585 1584 1584 1584 1581 1579 1578 1576 1574 1572 1570 1568 1566
1494 1498 1502 1506 1509 1512 1515 1519 1522 1525 1528 1531 1534 1536 1538 1541 1543 1545 1548 1549 1551 1553 1555 1556 1558 1560 1562 1564 1565 1567 1569 1570 1571 1573 1574 1575 1576 1577 1578 1579 1580 1580 1581 1582 1583 1584 1585 1586 1586 1587 1589 1590 1591 1592 1593 1593 1594 1594 1594 1595 1594 1593 1592 1590 1588 1586 1585 1585 1585 1584 1584 1584 1583 1581 1581 1580 1578 1577 1575 1573 1569 1567 1566 1563 1561
1490 1494 1498 1501 1504 1507 1511 1515 1518 1522 1524 1527 1530 1533 1535 1538 1540 1542 1544 1546 1548 1550 1551 1553 1555 1557 1559 1560 1562 1564 1565 1567 1568 1569 1571 1572 1574 1575 1576 1576 1577 1578 1578 1579 1580 1581 1582 1583 1584 1585 1586 1587 1589 1590 1590 1591 1591 1592 1592 1592 1591 1590 1589 1587 1585 1583 1583 1583 1583 1583 1582 1581 1580 1579 1578 1577 1575 1574 1572 1570 1565 1563 1561 1557 1555
1486 1490 1494 1496 1499 1503 1508 1511 1515 1518 1521 1524 1527 1529 1532 1534 1536 1539 1541 1542 1544 1546 1548 1550 1551 1553 1555 1557 1559 1560 1562 1563 1564 1566 1568 1569 1571 1572 1573 1573 1574 1575 1576 1576 1577 1578 1579 1580 1581 1581 1583 1584 1586 1587 1588 1588 1589 1589 1589 1589 1588 1587 1586 1584 1583 1581 1581 1580 1581 1581 1580 1578 1576 1576 1575 1574 1573 1571 1569 1566 1562 1559 1556 1550 1548
1482 1486 1489 1492 1496 1500 1504 1508 1511 1514 1516 1519 1522 1525 1528 1530 1533 1535 1537 1539 1541 1542 1544 1546 1547 1549 1551 1553 1555 1556 1558 1559 1561 1563 1565 1566 1568 1569 1569 1570 1571 1572 1573 1573 1574 1575 1576 1577 1577 1579 1580 1581 1582 1583 1584 1585 1586 1586 1586 1586 1586 1584 1583 1582 1581 1580 1578 1577 1578 1579 1577 1574 1572 1572 1571 1571 1570 1568 1565 1563 1561 1557 1552 1545 1541
1478 1481 1484 1488 1493 1497 1500 1503 1507 1509 1512 1515 1518 1521 1524 1527 1529 1531 1533 1535 1537 1538 1540 1542 1543 1546 1547 1549 1551 1552 1553 1555 1557 1559 1561 1563 1564 1565 1566 1567 1568 1569 1569 1570 1571 1572 1572 1573 1574 1575 1576 1578 1579 1580 1581 1582 1582 1583 1583 1583 1583 1582 1581 1580 1578 1577 1575 1573 1574 1575 1573 1570 1569 1568 1568 1567 1566 1564 1562 1562 1560 1555 1550 1543 1538
1474 1477 1481 1485 1489 1493 1496 1499 1503 1506 1509 1512 1515 1518 1521 1523 1525 1527 1529 1531 1533 1534 1536 1537 1540 1542 1543 1545 1547 1548 1549 1552 1554 1556 1558 1559 1561 1562 1563 1563 1564 1565 1566 1566 1567 1568 1568 1569 1570 1571 1572 1573 1575 1576 1577 1578 1579 1579 1579 1579 1579 1579 1579 1578 1575 1573 1571 1569 1568 1568 1567 1566 1565 1564 1565 1565 1563 1560 1559 1558 1557 1553 1546 1541 1537
1471 1474 1478 1482 1486 1489 1493 1496 1499 1502 1505 1508 1512 1514 1517 1519 1520 1523 1525 1527 1529 1530 1532 1534 1536 1538 1539 1541 1543 1544 1546 1548 1550 1552 1554 1556 1557 1558 1559 1560 1560 1561 1562 1562 1563 1564 1564 1565 1566 1567 1568 1569 1571 1572 1573 1574 1575 1575 1575 1575 1575 1576 1575 1574 1572 1569 1565 1563 1562 1562 1563 1563 1561 1560 1562 1562 1561 1558 1555 1554 1554 1549 1543 1538 1535
1468 1472 1476 1479 1482 1486 1489 1492 1495 1498 1502 1505 1508 1510 1512 1514 1516 1519 1522 1524 1525 1527 1529 1530 1532 1534 1535 1537 1539 1540 1542 1544 1546 1548 1550 1552 1553 1555 1555 1556 1556 1557 1558 1558 1559 1560 1561 1561 1562 1563 1565 1566 1567 1568 1570 1571 1572 1572 1571 1571 1571 1571 1571 1570 1568 1565 1562 1561 1560 1560 1561 1561 1558 1557 1558 1559 1558 1555 1551 1550 1550 1546 1540 1536 1533
1466 1469 1473 1476 1479 1483 1485 1489 1492 1495 1498 1501 1504 1506 1508 1510 1513 1516 1518 1520 1522 1523 1525 1527 1528 1530 1532 1533 1535 1536 1538 1540 1542 1544 1546 1548 1549 1551 1551 1552 1553 1553 1554 1554 1555 1556 1557 1558 1558 1559 1560 1561 1563 1565 1566 1568 1568 1568 1568 1567 1567 1567 1566 1564 1564 1563 1562 1562 1561 1559 1558 1557 1555 1555 1556 1555 1554 1552 1549 1547 1546 1543 1538 1534 1530
1463 1467 1470 1473 1476 1479 1482 1485 1488 1491 1495 1497 1499 1502 1504 1507 1509 1512 1514 1516 1518 1520 1522 1523 1525 1526 1528 1530 1531 1532 1534 1536 1538 1540 1542 1544 1545 1546 1547 1548 1548 1549 1549 1550 1551 1552 1553 1554 1554 1555 1556 1557 1559 1561 1563 1564 1565 1565 1565 1564 1563 1564 1563 1561 1560 1561 1562 1561 1559 1557 1555 1553 1552 1552 1552 1552 1551 1549 1547 1543 1541 1540 1536 1531 1527
1460 1463 1466 1469 1472 1475 1478 1482 1485 1488 1491 1493 1495 1498 1501 1503 1506 1508 1510 1512 1514 1516 1518 1520 1521 1523 1524 1526 1527 1528 1530 1532 1534 1536 1538 1540 1541 1541 1542 1543 1544 1544 1545 1546 1547 1548 1549 1549 1550 1551 1551 1553 1555 1557 1559 1560 1561 1562 1562 1561 1559 1560 1560 1558 1557 1558 1558 1557 1555 1554 1552 1551 1550 1549 1549 1549 1548 1546 1543 1539 1538 1537 1534 1528 1523
1457 1460 1463 1467 1470 1473 1476 1479 1482 1484 1487 1489 1492 1495 1497 1500 1503 1505 1507 1509 1511 1513 1515 1516 1518 1519 1520 1522 1523 1524 1526 1528 1530 1532 1534 1535 1536 1537 1538 1539 1539 1540 1541 1542 1543 1544 1544 1545 1546 1546 1547 1549 1551 1553 1555 1555 1557 1558 1558 1558 1556 1556 1557 1557 1556 1555 1555 1553 1553 1552 1550 1549 1547 1546 1546 1546 1545 1543 1540 1536 1535 1534 1530 1525 1521
1454 1457 1461 1464 1467 1470 1473 1476 1478 1481 1483 1486 1489 1492 1494 1497 1499 1501 1503 1505 1507 1509 1511 1512 1514 1515 1516 1518 1519 1520 1522 1524 1525 1527 1529 1530 1531 1533 1534 1534 1535 1535 1537 1538 1539 1539 1540 1541 1542 1542 1543 1545 1547 1549 1550 1551 1552 1554 1555 1555 1553 1552 1554 1555 1554 1552 1551 1550 1550 1549 1548 1546 1545 1543 1543 1542 1542 1540 1536 1533 1532 1530 1526 1522 1519
1451 1455 1459 1462 1465 1468 1470 1473 1475 1478 1480 1483 1486 1488 1491 1493 1496 1497 1499 1502 1504 1506 1507 1508 1510 1511 1513 1514 1515 1516 1518 1519 1521 1522 1524 1525 1527 1528 1529 1529 1530 1531 1532 1533 1534 1534 1535 1536 1537 1538 1539 1541 1543 1545 1546 1547 1548 1549 1551 1551 1549 1549 1550 1551 1551 1550 1548 1547 1546 1546 1545 1544 1542 1541 1539 1538 1537 1536 1533 1531 1529 1526 1523 1519 1516
1450 1453 1456 1459 1462 1465 1467 1470 1473 1475 1478 1481 1483 1485 1488 1490 1492 1494 1496 1498 1500 1501 1503 1505 1506 1508 1509 1510 1511 1512 1513 1515 1517 1518 1520 1521 1522 1524 1524 1525 1526 1527 1528 1529 1530 1530 1530 1531 1533 1534 1536 1537 1538 1540 1542 1543 1543 1544 1545 1546 1545 1545 1546 1548 1548 1547 1545 1544 1543 1543 1542 1541 1540 1538 1536 1535 1533 1532 1530 1528 1525 1523 1520 1516 1512
1448 1451 1454 1457 1460 1462 1465 1467 1470 1473 1475 1477 1480 1482 1484 1487 1489 1491 1493 1495 1496 1498 1500 1501 1503 1504 1505 1506 1507 1508 1510 1511 1513 1514 1515 1516 1518 1519 1520 1521 1523 1524 1524 1524 1525 1526 1527 1528 1529 1531 1532 1533 1534 1536 1537 1538 1539 1539 1540 1541 1540 1539 1543 1546 1547 1545 1544 1543 1541 1540 1540 1538 1537 1535 1534 1532 1530 1528 1526 1523 1521 1518 1516 1513 1510
1446 1449 1452 1455 1458 1460 1463 1465 1468 1470 1472 1474 1477 1479 1481 1484 1485 1487 1489 1491 1493 1495 1496 1498 1499 1500 1501 1502 1503 1504 1506 1508 1509 1510 1511 1513 1514 1515 1516 1517 1519 1520 1520 1520 1521 1522 1523 1524 1526 1527 1528 1529 1530 1532 1533 1533 1534 1535 1535 1536 1535 1534 1536 1540 1543 1542 1541 1539 1537 1537 1536 1535 1533 1531 1529 1527 1525 1523 1521 1518 1516 1513 1510 1508 1505
1444 1447 1450 1453 1456 1458 1461 1463 1465 1468 1469 1472 1474 1476 1478 1480 1482 1484 1486 1488 1490 1491 1493 1494 1495 1496 1497 1498 1499 1500 1502 1503 1505 1506 1507 1509 1510 1511 1512 1513 1515 1515 1515 1516 1518 1519 1520 1521 1522 1523 1525 1526 1527 1527 1528 1529 1530 1531 1531 1531 1531 1529 1529 1532 1535 1536 1536 1535 1534 1534 1533 1532 1530 1528 1526 1524 1522 1520 1517 1515 1512 1509 1506 1502 1499
1442 1445 1448 1450 1453 1456 1459 1461 1463 1465 1467 1469 1471 1473 1475 1477 1478 1481 1482 1484 1486 1488 1489 1490 1491 1492 1494 1495 1495 1497 1498 1500 1501 1502 1503 1505 1505 1506 1508 1509 1511 1512 1512 1513 1515 1516 1516 1518 1519 1520 1521 1522 1523 1524 1525 1526 1526 1527 1528 1528 1527 1526 1526 1528 1530 1532 1532 1533 1533 1532 1531 1529 1528 1526 1523 1521 1519 1516 1514 1511 1509 1506 1503 1499 1496
1440 1443 1446 1448 1451 1454 1456 1458 1460 1462 1464 1466 1468 1470 1472 1473 1475 1477 1479 1480 1482 1484 1485 1487 1488 1489 1490 1491 1492 1494 1495 1495 1497 1498 1499 1500 1501 1503 1504 1505 1507 1508 1509 1509 1510 1512 1513 1514 1515 1516 1518 1519 1520 1521 1522 1523 1523 1524 1524 1524 1524 1525 1526 1527 1528 1529 1530 1530 1530 1529 1528 1526 1525 1523 1521 1518 1516 1514 1511 1508 1506 1503 1500 1495 1491
1438 1441 1444 1447 1449 1451 1453 1455 1457 1459 1461 1463 1465 1467 1468 1470 1471 1473 1475 1477 1478 1480 1481 1483 1484 1485 1486 1487 1489 1490 1491 1491 1493 1494 1495 1497 1498 1499 1500 1502 1503 1504 1505 1506 1507 1508 1510 1511 1512 1514 1515 1517 1518 1518 1519 1520 1521 1521 1521 1522 1522 1524 1525 1525 1526 1527 1527 1527 1527 1526 1525 1523 1521 1519 1517 1515 1513 1510 1507 1504 1501 1498 1494 1490 1485
1436 1439 1442 1444 1446 1448 1450 1452 1454 1456 1458 1460 1461 1463 1464 1466 1467 1469 1470 1473 1475 1476 1478 1479 1480 1481 1483 1484 1486 1486 1487 1487 1489 1490 1492 1493 1494 1496 1497 1498 1499 1500 1502 1503 1505 1506 1507 1509 1510 1512 1513 1514 1515 1516 1517 1518 1518 1519 1519 1520 1521 1521 1522 1522 1523 1523 1523 1523 1522 1521 1520 1519 1517 1515 1514 1512 1509 1507 1503 1500 1496 1493 1489 1485 1481
1434 1437 1439 1441 1444 1446 1448 1450 1452 1453 1455 1456 1458 1459 1461 1462 1463 1465 1467 1469 1471 1473 1475 1476 1477 1479 1480 1481 1482 1483 1483 1484 1485 1487 1489 1490 1491 1492 1493 1494 1496 1498 1499 1501 1503 1504 1505 1507 1509 1510 1511 1512 1512 1513 1514 1515 1515 1516 1517 1518 1518 1518 1519 1519 1519 1519 1519 1519 1518 1517 1516 1514 1513 1512 1510 1508 1506 1503 1499 1496 1492 1489 1486 1482 1478
1433 1435 1437 1439 1441 1443 1445 1447 1448 1450 1451 1453 1454 1456 1457 1458 1460 1462 1464 1466 1468 1470 1471 1473 1475 1476 1477 1478 1478 1479 1480 1480 1482 1484 1484 1486 1487 1488 1490 1491 1493 1495 1497 1499 1500 1502 1503 1505 1506 1507 1508 1509 1510 1511 1511 1512 1513 1514 1515 1515 1515 1516 1516 1516 1516 1516 1516 1515 1514 1513 1512 1511 1510 1508 1506 1504 1502 1499 1496 1493 1490 1486 1483 1480 1476
1433 1434 1436 1438 1439 1441 1442 1444 1445 1447 1448 1450 1451 1452 1454 1455 1457 1459 1461 1463 1465 1467 1468 1470 1471 1473 1473 1474 1474 1475 1476 1477 1479 1480 1481 1482 1484 1485 1486 1488 1489 1491 1494 1496 1498 1499 1501 1502 1503 1504 1505 1506 1507 1508 1509 1510 1511 1512 1512 1513 1513 1513 1513 1514 1514 1513 1513 1512 1510 1510 1509 1508 1507 1505 1503 1501 1498 1495 1493 1490 1487 1484 1481 1478 1474
1432 1434 1435 1437 1438 1439 1440 1441 1442 1444 1445 1447 1448 1450 1451 1453 1454 1456 1458 1460 1462 1463 1465 1466 1468 1468 1469 1470 1470 1471 1473 1474 1475 1477 1478 1479 1480 1481 1483 1484 1486 1488 1491 1493 1495 1496 1497 1498 1500 1501 1502 1504 1505 1506 1507 1508 1508 1509 1510 1510 1511 1511 1511 1511 1510 1510 1509 1508 1508 1507 1506 1505 1503 1502 1500 1498 1495 1492 1490 1487 1485 1483 1480 1478 1474
1432 1433 1435 1436 1437 1438 1439 1440 1441 1442 1443 1445 1446 1448 1449 1450 1452 1453 1455 1457 1458 1460 1461 1462 1464 1465 1466 1466 1467 1468 1470 1471 1472 1473 1475 1476 1477 1478 1480 1482 1484 1486 1489 1491 1492 1493 1493 1495 1496 1498 1500 1502 1503 1505 1506 1506 1507 1507 1507 1508 1508 1508 1508 1508 1507 1507 1506 1506 1505 1504 1503 1502 1501 1499 1497 1495 1492 1490 1488 1485 1483 1481 1479 1476 1473
1431 1432 1434 1435 1436 1437 1438 1439 1440 1441 1442 1443 1445 1446 1448 1449 1450 1452 1453 1454 1456 1457 1458 1459 1460 1461 1462 1464 1465 1466 1467 1468 1470 1471 1472 1473 1475 1476 1478 1480 1483 1486 1488 1489 1489 1489 1490 1491 1493 1496 1498 1500 1502 1503 1504 1505 1505 1505 1505 1505 1505 1505 1505 1505 1505 1504 1504 1503 1502 1502 1501 1500 1499 1497 1495 1493 1491 1489 1487 1484 1482 1480 1478 1475 1472
1430 1431 1432 1434 1435 1436 1436 1437 1438 1439 1441 1442 1443 1445 1446 1448 1449 1451 1452 1453 1454 1455 1455 1457 1458 1459 1461 1462 1463 1464 1465 1467 1468 1469 1470 1472 1473 1474 1477 1480 1483 1484 1486 1486 1486 1487 1489 1490 1492 1494 1496 1498 1500 1502 1503 1503 1503 1503 1503 1503 1503 1503 1503 1502 1502 1502 1502 1501 1500 1500 1499 1498 1497 1495 1494 1492 1490 1488 1486 1484 1482 1480 1477 1475 1472
1429 1430 1431 1433 1434 1435 1435 1436 1437 1438 1439 1440 1442 1443 1444 1446 1448 1449 1450 1451 1452 1453 1453 1454 1456 1457 1458 1460 1461 1462 1463 1464 1466 1467 1469 1470 1471 1473 1476 1478 1480 1482 1483 1484 1485 1487 1489 1491 1492 1493 1495 1496 1498 1500 1501 1501 1501 1501 1501 1501 1501 1501 1501 1500 1500 1500 1500 1499 1499 1498 1498 1497 1496 1494 1493 1491 1490 1488 1486 1484 1482 1480 1477 1475 1471
1429 1430 1431 1432 1433 1434 1435 1436 1436 1437 1438 1439 1441 1442 1443 1445 1447 1448 1449 1450 1451 1451 1452 1453 1454 1456 1457 1459 1460 1461 1462 1463 1464 1465 1467 1469 1471 1473 1476 1477 1479 1481 1483 1485 1486 1487 1489 1490 1491 1493 1494 1496 1497 1498 1499 1499 1500 1500 1499 1499 1499 1499 1499 1498 1498 1498 1498 1498 1498 1497 1496 1495 1494 1493 1492 1490 1489 1487 1485 1483 1482 1480 1477 1474 1471
1429 1430 1431 1432 1433 1434 1435 1436 1436 1437 1438 1439 1440 1442 1443 1444 1446 1447 1448 1449 1449 1450 1451 1452 1454 1455 1456 1458 1460 1461 1462 1463 1464 1465 1467 1469 1470 1472 1475 1478 1480 1483 1485 1486 1487 1488 1489 1490 1491 1492 1494 1495 1496 1497 1497 1498 1498 1498 1497 1497 1497 1497 1496 1496 1496 1496 1497 1497 1496 1496 1495 1494 1492 1491 1491 1490 1488 1487 1485 1484 1482 1480 1477 1474 1471
1430 1431 1431 1431 1432 1433 1434 1435 1435 1436 1437 1438 1440 1441 1443 1444 1445 1446 1446 1447 1448 1450 1451 1452 1454 1455 1456 1458 1460 1461 1463 1465 1465 1466 1468 1471 1471 1473 1476 1478 1481 1483 1485 1486 1487 1488 1489 1490 1491 1492 1493 1493 1494 1495 1496 1496 1496 1496 1495 1495 1495 1495 1495 1495 1495 1496 1496 1495 1495 1494 1493 1492 1491 1491 1490 1489 1488 1487 1485 1484 1482 1480 1478 1475 1472
1431 1432 1432 1431 1431 1432 1433 1433 1434 1435 1436 1437 1439 1441 1442 1443 1444 1444 1445 1445 1447 1449 1451 1453 1454 1456 1457 1458 1459 1460 1462 1465 1466 1468 1470 1472 1473 1474 1476 1479 1481 1482 1484 1485 1486 1487 1489 1489 1490 1491 1491 1492 1493 1494 1494 1494 1494 1493 1493 1493 1493 1493 1493 1494 1494 1495 1495 1494 1494 1493 1492 1491 1491 1490 1489 1488 1487 1486 1485 1484 1482 1480 1478 1475 1472
1432 1433 1432 1432 1431 1431 1431 1432 1432 1433 1434 1436 1437 1439 1440 1441 1442 1443 1444 1445 1446 1449 1451 1452 1454 1456 1458 1459 1461 1462 1463 1464 1466 1468 1470 1472 1474 1475 1477 1479 1480 1481 1482 1484 1484 1486 1487 1488 1489 1489 1490 1490 1491 1491 1492 1492 1492 1491 1491 1492 1492 1492 1493 1493 1493 1494 1493 1493 1492 1492 1491 1490 1490 1489 1489 1488 1487 1486 1484 1483 1481 1480 1477 1475 1472
1433 1433 1432 1431 1431 1430 1430 1430 1431 1432 1433 1434 1436 1437 1439 1440 1441 1442 1444 1445 1447 1449 1451 1452 1454 1457 1459 1461 1463 1464 1463 1463 1465 1467 1468 1470 1473 1475 1476 1477 1479 1480 1481 1482 1483 1484 1485 1486 1487 1487 1488 1488 1489 1489 1489 1490 1490 1490 1490 1490 1491 1491 1492 1492 1492 1492 1492 1492 1491 1491 1490 1490 1489 1489 1488 1488 1487 1486 1484 1483 1481 1479 1476 1474 1472
1434 1433 1433 1432 1431 1430 1429 1429 1430 1431 1432 1433 1435 1437 1438 1439 1440 1442 1443 1445 1447 1449 1451 1453 1453 1455 1457 1460 1462 1463 1463 1464 1465 1467 1468 1470 1472 1474 1475 1476 1477 1479 1480 1481 1482 1483 1484 1485 1486 1486 1487 1487 1487 1487 1488 1488 1488 1489 1489 1489 1490 1490 1490 1490 1490 1490 1490 1490 1490 1490 1489 1489 1489 1488 1488 1487 1486 1485 1484 1482 1480 1478 1475 1473 1472
1433 1433 1433 1433 1432 1430 1429 1428 1429 1429 1430 1432 1434 1436 1437 1439 1441 1442 1444 1445 1446 1448 1450 1452 1452 1453 1456 1459 1460 1462 1462 1464 1465 1467 1469 1470 1472 1473 1475 1475 1476 1477 1479 1480 1481 1483 1484 1484 1485 1485 1485 1485 1486 1486 1486 1486 1487 1487 1488 1488 1488 1488 1488 1488 1488 1488 1489 1489 1489 1489 1489 1488 1488 1488 1487 1486 1485 1484 1483 1481 1479 1476 1474 1473 1472
1432 1432 1433 1433 1433 1431 1430 1429 1428 1429 1430 1431 1433 1435 1437 1439 1440 1442 1444 1445 1446 1448 1450 1451 1452 1454 1456 1457 1459 1460 1461 1462 1464 1466 1468 1470 1471 1472 1474 1475 1476 1477 1478 1479 1481 1482 1482 1483 1483 1483 1483 1484 1484 1484 1484 1485 1485 1485 1486 1486 1486 1486 1487 1487 1487 1487 1487 1487 1487 1487 1487 1487 1487 1486 1486 1485 1484 1482 1481 1479 1477 1475 1473 1472 1471
1431 1431 1432 1433 1433 1432 1431 1430 1429 1429 1430 1431 1434 1436 1438 1439 1441 1443 1445 1446 1447 1448 1450 1451 1452 1454 1455 1457 1459 1460 1460 1462 1464 1466 1469 1470 1471 1472 1473 1474 1475 1476 1477 1479 1480 1480 1481 1481 1481 1481 1482 1482 1482 1482 1483 1483 1484 1484 1484 1485 1485 1485 1485 1486 1486 1486 1486 1486 1486 1486 1486 1486 1485 1484 1484 1483 1482 1480 1478 1477 1475 1473 1472 1471 1470
1430 1431 1431 1432 1433 1433 1432 1431 1430 1429 1430 1431 1434 1436 1438 1439 1441 1443 1445 1447 1447 1449 1450 1452 1452 1453 1455 1457 1459 1459 1460 1462 1464 1466 1468 1470 1471 1471 1473 1474 1475 1476 1477 1478 1479 1479 1479 1480 1480 1480 1480 1480 1481 1481 1482 1482 1483 1483 1484 1484 1484 1485 1485 1485 1485 1485 1485 1485 1485 1484 1484 1483 1483 1482 1481 1480 1479 1478 1476 1474 1473 1471 1470 1469 1468
1430 1430 1431 1432 1433 1433 1432 1431 1430 1430 1430 1432 1434 1436 1438 1439 1441 1443 1445 1446 1448 1449 1451 1452 1453 1453 1454 1456 1457 1459 1460 1462 1464 1466 1468 1469 1470 1471 1472 1473 1474 1475 1476 1477 1478 1478 1478 1479 1479 1479 1479 1480 1480 1481 1481 1481 1482 1482 1483 1483 1484 1484 1484 1484 1484 1484 1484 1483 1483 1482 1482 1481 1481 1480 1479 1477 1476 1474 1473 1472 1471 1469 1468 1467 1466
1431 1430 1431 1432 1434 1434 1432 1431 1431 1430 1431 1432 1434 1436 1438 1439 1440 1442 1443 1445 1447 1449 1451 1452 1453 1455 1456 1457 1458 1459 1460 1462 1463 1465 1466 1468 1469 1471 1472 1473 1474 1475 1475 1476 1477 1477 1477 1478 1478 1478 1479 1479 1480 1480 1480 1481 1481 1481 1482 1482 1482 1482 1482 1483 1483 1482 1482 1482 1481 1481 1480 1479 1478 1477 1476 1474 1473 1472 1470 1469 1468 1467 1466 1465 1464
1431 1430 1431 1432 1434 1434 1434 1433 1432 1432 1433 1434 1436 1439 1441 1442 1442 1444 1445 1446 1448 1450 1451 1453 1454 1456 1457 1458 1459 1460 1461 1461 1462 1464 1465 1467 1468 1470 1472 1473 1473 1474 1475 1475 1476 1476 1477 1477 1477 1478 1478 1478 1479 1479 1479 1479 1480 1480 1480 1480 1481 1481 1481 1481 1480 1480 1480 1480 1479 1479 1478 1477 1476 1474 1473 1471 1470 1469 1468 1467 1466 1465 1464 1463 1462
1432 1432 1432 1433 1434 1434 1434 1434 1434 1434 1436 1438 1440 1443 1445 1446 1447 1449 1450 1452 1454 1455 1457 1458 1459 1460 1461 1463 1463 1463 1462 1462 1463 1464 1465 1466 1467 1469 1471 1472 1473 1474 1475 1475 1476 1476 1476 1477 1477 1477 1477 1478 1478 1478 1478 1478 1479 1479 1479 1479 1479 1479 1479 1478 1478 1478 1477 1477 1477 1476 1476 1475 1473 1472 1470 1469 1468 1467 1466 1465 1463 1462 1462 1461 1460